Date String (YYYY-MM-DD hh:mm:ss) UTC,Instrument flags,absolute air pressure of the measurement (hPa),sample flow rate (lpm),inlet stack bypass flow (lpm),air temperature of the measurement (°C),ambient temperature measured by the external sensor (°C),aerosol sample conditioner tube jacket temperature (°C),OPC LED temperature (°C),internal box temperature (°C),relative humidity of the measurement (%),span deviation,mass concentration of particles derived from Lorenz-Mie calculation of OPC scattering (μg/m³),mass concentration of particles derived from Lorenz-Mie calculation of OPC scattering (μg/m³),mass concentration of particles derived from Lorenz-Mie calculation of OPC scattering (μg/m³)
DateTimeUTC,F1_M11,P_M11,Q1_M11,Q2_M11,T1_M11,T2_M11,T3_M11,T4_M11,T5_M11,U1_M11,ZSPAN_M11,X0_M11,X2_M11,X1_M11
2023-12-07 11:00:00,SystemResetWarning,0820.9,5.00,000.00,024.2,023.2,000.0,032.6,025.4,10.4,0000.0,0005.98,0002.71,0002.25
2023-12-07 11:01:00,SystemResetWarning,0820.8,5.00,000.00,024.2,023.2,000.0,032.5,025.4,10.5,0000.0,0006.22,0002.84,0002.35
2023-12-07 11:02:00,SystemResetWarning,0820.8,4.99,000.00,024.2,023.2,000.0,032.5,025.5,10.6,0000.0,0006.61,0002.97,0002.45
2023-12-07 11:03:00,SystemResetWarning,0820.8,5.00,000.00,024.2,023.2,000.0,032.5,025.4,10.7,0000.0,0006.48,0002.96,0002.45
2023-12-07 11:04:00,SystemResetWarning,0821.1,5.00,000.00,024.2,023.2,000.0,032.5,025.5,10.7,0000.0,0006.30,0002.93,0002.45
2023-12-07 11:05:00,SystemResetWarning,0821.0,5.00,000.00,024.2,023.2,000.0,032.5,025.5,10.7,0000.0,0005.85,0003.05,0002.57
2023-12-07 11:06:00,SystemResetWarning,0821.1,5.00,000.00,024.2,023.2,000.0,032.5,025.5,10.7,0000.0,0005.36,0003.09,0002.61
2023-12-07 11:07:00,SystemResetWarning,0821.0,5.00,000.00,024.2,023.2,000.0,032.5,025.5,10.7,0000.0,0004.54,0003.15,0002.70
2023-12-07 11:08:00,SystemResetWarning,0820.8,5.00,000.00,024.2,023.2,000.0,032.5,025.5,10.8,0000.0,0005.47,0003.30,0002.91
2023-12-07 11:09:00,SystemResetWarning,0820.8,5.00,000.00,024.2,023.2,000.0,032.5,025.5,10.9,0000.0,0006.48,0003.44,0003.09
2023-12-07 11:10:00,SystemResetWarning,0820.8,5.01,000.00,024.2,023.2,000.0,032.5,025.5,10.9,0000.0,0007.14,0003.50,0003.12
2023-12-07 11:11:00,SystemResetWarning,0820.7,5.00,000.00,024.2,023.2,000.0,032.5,025.5,11.0,0000.0,0008.97,0003.55,0003.17
2023-12-07 11:12:00,SystemResetWarning,0820.6,5.01,000.00,024.2,023.2,000.0,032.5,025.5,10.9,0000.0,0010.12,0003.63,0003.22
2023-12-07 11:13:00,SystemResetWarning,0820.6,4.99,000.00,024.2,023.2,000.0,032.5,025.5,11.0,0000.0,0010.61,0003.70,0003.28
2023-12-07 11:14:00,SystemResetWarning,0820.6,5.00,000.00,024.2,023.2,000.0,032.5,025.5,10.7,0000.0,0010.63,0003.75,0003.34
2023-12-07 11:15:00,SystemResetWarning,0820.6,5.00,000.00,024.2,023.2,000.0,032.5,025.5,10.4,0000.0,0010.70,0003.81,0003.40
2023-12-07 11:16:00,SystemResetWarning,0820.7,5.00,000.00,024.2,023.2,000.0,032.5,025.5,10.8,0000.0,0011.30,0003.89,0003.45
2023-12-07 11:17:00,SystemResetWarning,0820.6,5.00,000.00,024.2,023.2,000.0,032.5,025.5,10.9,0000.0,0011.64,0003.93,0003.49
2023-12-07 11:18:00,SystemResetWarning,0820.6,5.00,000.00,024.2,023.2,000.0,032.5,025.5,10.9,0000.0,0011.73,0004.00,0003.55
2023-12-07 11:19:00,SystemResetWarning,0820.7,4.99,000.00,024.2,023.2,000.0,032.5,025.5,10.8,0000.0,0011.51,0004.07,0003.61
2023-12-07 11:20:00,SystemResetWarning,0820.6,5.00,000.00,024.2,023.2,000.0,032.5,025.5,10.7,0000.0,0011.31,0004.17,0003.70
2023-12-07 11:21:00,SystemResetWarning,0820.6,5.00,000.00,024.2,023.2,000.0,032.5,025.5,10.2,0000.0,0011.13,0004.29,0003.82
2023-12-07 11:22:00,SystemResetWarning,0820.5,5.00,000.00,024.2,023.2,000.0,032.5,025.5,9.6,0000.0,0009.71,0004.41,0003.92
2023-12-07 11:23:00,SystemResetWarning,0820.6,5.01,000.00,024.2,023.2,000.0,032.5,025.5,9.2,0000.0,0009.22,0004.51,0004.02
2023-12-07 11:24:00,SystemResetWarning,0820.9,5.00,000.00,024.2,023.2,000.0,032.5,025.5,9.0,0000.0,0008.82,0004.58,0004.09
2023-12-07 11:25:00,SystemResetWarning,0820.8,5.00,000.00,024.2,023.2,000.0,032.5,025.5,8.9,0000.0,0009.52,0004.64,0004.14
2023-12-07 11:26:00,SystemResetWarning,0820.9,4.99,000.00,024.2,023.2,000.0,032.5,025.5,8.8,0000.0,0010.05,0004.72,0004.20
2023-12-07 11:27:00,SystemResetWarning,0820.8,4.99,000.00,024.2,023.2,000.0,032.5,025.5,8.8,0000.0,0010.30,0004.77,0004.24
2023-12-07 11:28:00,SystemResetWarning,0820.6,5.02,000.00,024.2,023.2,000.0,032.5,025.5,8.7,0000.0,0011.31,0004.80,0004.29
2023-12-07 11:29:00,SystemResetWarning,0820.7,5.00,000.00,024.2,023.2,000.0,032.5,025.5,8.6,0000.0,0011.98,0004.82,0004.32
2023-12-07 11:30:00,SystemResetWarning,0820.7,4.98,000.00,024.2,023.2,000.0,032.5,025.5,8.4,0000.0,0012.27,0004.83,0004.34
2023-12-07 11:31:00,SystemResetWarning,0820.7,5.01,000.00,024.2,023.2,000.0,032.5,025.5,8.3,0000.0,0012.21,0004.77,0004.30
2023-12-07 11:32:00,SystemResetWarning,0820.7,5.01,000.00,024.2,023.2,000.0,032.5,025.5,8.4,0000.0,0011.97,0004.61,0004.17
2023-12-07 11:33:00,SystemResetWarning,0820.3,5.00,000.00,024.2,023.2,000.0,032.5,025.5,8.6,0000.0,0011.62,0004.38,0004.00
2023-12-07 11:34:00,SystemResetWarning,0820.3,5.00,000.00,024.2,023.2,000.0,032.5,025.5,8.6,0000.0,0010.83,0004.15,0003.80
2023-12-07 11:35:00,SystemResetWarning,0820.3,5.00,000.00,024.2,023.2,000.0,032.5,025.5,8.4,0000.0,0010.59,0003.93,0003.60
2023-12-07 11:36:00,SystemResetWarning,0820.4,5.00,000.00,024.2,023.2,000.0,032.5,025.5,8.3,0000.0,0010.15,0003.75,0003.44
2023-12-07 11:37:00,SystemResetWarning,0820.4,5.00,000.00,024.2,023.2,000.0,032.5,025.5,8.4,0000.0,0009.49,0003.54,0003.25
2023-12-07 11:38:00,SystemResetWarning,0820.8,5.00,000.00,024.2,023.2,000.0,032.5,025.5,8.5,0000.0,0008.48,0003.33,0003.06
2023-12-07 11:39:00,SystemResetWarning,0820.7,5.00,000.00,024.2,023.2,000.0,032.5,025.5,9.5,0000.0,0007.26,0003.13,0002.76
2023-12-07 11:40:00,SystemResetWarning,0820.7,5.00,000.00,024.2,023.1,000.0,032.5,025.4,9.0,0000.0,0005.18,0002.81,0002.42
2023-12-07 11:41:00,SystemResetWarning,0820.3,5.00,000.00,024.2,023.1,000.0,032.5,025.5,8.5,0000.0,0004.14,0002.48,0002.11
2023-12-07 11:42:00,SystemResetWarning,0820.3,5.01,000.00,024.2,023.1,000.0,032.5,025.5,8.4,0000.0,0003.58,0002.15,0001.82
2023-12-07 11:43:00,SystemResetWarning,0820.2,5.00,000.00,024.2,023.1,000.0,032.5,025.5,8.5,0000.0,0003.31,0001.98,0001.68
2023-12-07 11:44:00,SystemResetWarning,0820.5,4.99,000.00,024.2,023.1,000.0,032.5,025.5,8.4,0000.0,0003.24,0001.88,0001.58
2023-12-07 11:45:00,SystemResetWarning,0820.4,4.99,000.00,024.2,023.1,000.0,032.5,025.5,9.5,0000.0,0003.20,0001.82,0001.52
2023-12-07 11:46:00,SystemResetWarning,0820.4,5.01,000.00,024.1,023.1,000.0,032.5,025.4,8.3,0000.0,0003.13,0001.77,0001.48
2023-12-07 11:47:00,SystemResetWarning,0820.8,5.01,000.00,024.1,023.0,000.0,032.5,025.4,8.2,0000.0,0002.68,0001.72,0001.45
2023-12-07 11:48:00,SystemResetWarning,0820.4,4.99,000.00,024.1,023.0,000.0,032.5,025.4,8.3,0000.0,0002.41,0001.66,0001.43
2023-12-07 11:49:00,SystemResetWarning,0820.3,5.00,000.00,024.1,023.0,000.0,032.5,025.4,7.9,0000.0,0002.55,0001.73,0001.50
2023-12-07 11:50:00,SystemResetWarning,0820.3,5.00,000.00,024.1,023.0,000.0,032.4,025.4,7.9,0000.0,0002.87,0001.81,0001.55
2023-12-07 11:51:00,SystemResetWarning,0820.3,4.99,000.00,024.1,023.0,000.0,032.4,025.4,8.5,0000.0,0003.06,0001.85,0001.55
2023-12-07 11:52:00,SystemResetWarning,0820.3,4.99,000.00,024.1,023.0,000.0,032.4,025.5,8.1,0000.0,0003.70,0001.84,0001.53
2023-12-07 11:53:00,SystemResetWarning,0820.3,5.00,000.00,024.1,023.1,000.0,032.4,025.4,8.5,0000.0,0003.87,0001.81,0001.51
2023-12-07 11:54:00,SystemResetWarning,0820.3,5.00,000.00,024.1,023.1,000.0,032.4,025.4,8.4,0000.0,0003.85,0001.78,0001.48
2023-12-07 11:55:00,SystemResetWarning,0820.3,5.00,000.00,024.1,023.0,000.0,032.4,025.4,7.6,0000.0,0003.85,0001.80,0001.53
2023-12-07 11:56:00,SystemResetWarning,0820.2,5.01,000.00,024.1,023.0,000.0,032.4,025.4,7.2,0000.0,0004.00,0001.80,0001.53
2023-12-07 11:57:00,SystemResetWarning,0820.4,5.00,000.00,024.1,023.1,000.0,032.4,025.3,7.1,0000.0,0004.02,0001.80,0001.51
2023-12-07 11:58:00,SystemResetWarning,0820.0,5.00,000.00,024.1,023.1,000.0,032.4,025.4,7.0,0000.0,0003.93,0001.80,0001.50
2023-12-07 11:59:00,SystemResetWarning,0820.1,5.00,000.00,024.1,023.1,000.0,032.4,025.3,7.5,0000.0,0003.85,0001.76,0001.47
